User: anonymous   Login
Location: Bathurst
(33.4193°S, 149.5775°E)
Time: 13:33:40
(UTC+10:00)
Language:

S-56A Canister/Altair - Orbit

View from above orbital plane
View from above orbital plane
View from above satellite
View from above satellite

Ground track
Ground track

The orbit data is extracted from the following two-line orbital elements,

1 00082U 61004B   21163.43579782 -.00000112  00000-0 -42322-4 0  9992
2 00082  38.8574 305.4199 1175732  20.9160 343.5788 12.26034558851998
Epoch (UTC): 12 June 2021 10:27:32
Eccentricity: 0.1175732
inclination: 38.8574°
perigee height: 632 km
apogee height: 2500 km
right ascension of ascending node: 305.4199°
argument of perigee: 20.9160°
revolutions per day: 12.26034558
mean anomaly at epoch: 343.5788°
orbit number at epoch: 85199

The dashed part of the orbit path shows where the satellite is in the earth's shadow,  

DLR